Location: Zilina
(0.0000°N, 18.7333°E)
Time: 09:21:18
(UTC+01:00)

YAOGAN 1 - Pass Details

Date: 19 February 2019
Orbit: 619 x 621 km, 98.0° (Epoch: 21 March)

Event Time Altitude Azimuth Distance (km) Brightness Sun altitude
Rises 18:54:53 0° 183° (S) 2,894 6.2 -13.7°
Reaches altitude 10° 18:57:12 10° 191° (S) 1,986 5.4 -14.3°
Maximum altitude 19:01:11 37° 258° (WSW) 970 4.2 -15.3°
Drops below altitude 10° 19:05:09 10° 326° (NW) 1,978 5.4 -16.2°
Sets 19:07:27 0° 334° (NNW) 2,881 6.2 -16.8°
